星链-32303 (STARLINK-32303)

导读

STARLINK-32303是美国星链计划中的近地轨道通信卫星,于2024年11月11日发射入轨,隶属于SpaceX公司打造的Starlink卫星互联网星座,旨在为全球偏远地区、地面网络覆盖不足区域提供高速低延迟的宽带互联网接入服务,助力构建全球全覆盖的卫星通信网络。

Basic Information
目录编号:
61912
目录名称:
STARLINK-32303
国际标识:
2024-207A
轨道中心:
EARTH
卫星名称:
星链-32303
卫星全名:
星链-32303 (STARLINK-32303)
卫星状态:
在轨 (已飞行662 天)
发射日期:
2024-11-11 UTC
国别 :
美国 (US)
星等 :
--
Orbit Information
数据来源 国际轨道数据
星历时间: 2026-09-03T14:51:39+0800
1天前
查看轨道信息
半长轴: 6861.152km
偏心率: 0.0001197
轨道倾角: 43.004°
近地点辐角 252.624°
升交点赤经 358.727°
平近点角 107.448°
近地点: 482.193km
远地点: 483.837km
周期: 94.266分钟
每日圈数: 15.275917
Detailed Information
固有亮度:
5
最大亮度:
2.5
卫星平台:
Starlink V1.0
覆盖范围:
全球
运营商:
太空探索技术公司
运营商所在国:
美国
制造商(研发单位):
太空探索技术公司
制造商所在国:
美国
使用方式:
暂无
Satellite Introduction
Starlink 计划是 SpaceX 推出的全球卫星互联网项目,通过发射低轨道卫星,为全球尤其是偏远地区提供高速、低延迟的互联网服务。自 2019 年起,Starlink 已部署数千颗卫星,旨在缩小全球数字鸿沟,推动互联网普及。该项目还为军事、航空等行业提供通信支持,带来广泛经济效益。
2D Orbit Map
3D Orbit Map
Orbit Altitude Analysis Chart
Orbit Inclination Analysis Chart
Orbit Comprehensive Analysis Chart
View Comprehensive Chart
Conjunction Data List
Event ID Objects TCA Miss Dist (km) Collision Risk Probability Collision Risk Index (CRI) Action
CDM_260905-131205-975106-191221
2026-09-05T
13:12:53+0000
0.423 km
远距离
2.064674E-4 高风险 0.81
CDM_260906-054105-975106-191221
2026-09-06T
05:41:30+0000
0.841 km
远距离
3.125401E-5 中风险 0.65
CDM_260906-071505-975106-191221
2026-09-06T
07:15:39+0000
1.302 km
极远距离
6.998814E-6 低风险 0.52
CDM_260905-144705-975106-191221
2026-09-05T
14:47:03+0000
1.328 km
极远距离
6.547558E-6 低风险 0.51
CDM_260906-060905-800206-191221
2026-09-06T
06:09:30+0000
2.023 km
极远距离
2.164277E-6 低风险 0.42
CDM_260905-113805-975106-191221
2026-09-05T
11:38:44+0000
1.984 km
极远距离
1.968707E-6 低风险 0.41
CDM_260906-040705-975106-191221
2026-09-06T
04:07:21+0000
2.823 km
极远距离
1.011166E-6 低风险 0.35